Theta_e
344 342 341 340 337 334 333 333 334 337 341 343 342 343 344 347 348 348 348 348 348 348 347 347 346 345 344 343 342 342 343 345 346 346 346 346 345 345 344 344 345 346 346 346 346 345 344 344 344 343 343 342 342 341 341 343 346 347 349 350 349 349 349 349 350 348 346 344 343 343 343 341 340 340 341 342 342 342 342 341 341 340 339 338 337
344 342 341 341 339 337 335 333 333 335 337 339 340 340 340 342 344 346 346 346 346 347 346 347 347 348 348 348 345 343 342 345 347 347 347 346 345 344 343 343 344 344 344 344 344 344 344 344 344 344 344 344 343 342 342 344 346 348 349 349 349 350 350 350 351 350 348 345 344 344 345 344 343 343 344 344 343 342 342 341 339 338 337 335 334
344 343 343 342 341 339 337 335 334 334 335 336 337 337 337 337 339 342 344 344 344 344 345 345 346 347 347 348 347 346 345 346 349 349 348 346 345 344 344 343 343 343 342 342 342 343 343 343 343 343 344 344 343 343 342 342 344 346 347 348 348 349 349 349 349 348 347 346 344 344 345 345 344 344 345 344 343 342 340 338 336 335 334 334 333
345 345 345 345 344 342 339 336 334 333 333 335 335 336 336 335 335 338 341 343 343 343 343 343 344 345 345 346 347 347 347 349 350 350 349 347 345 344 343 343 343 343 342 342 342 342 342 343 343 343 343 344 344 344 343 343 343 343 345 345 346 347 348 347 346 345 345 344 343 342 343 342 342 342 342 341 340 339 337 337 336 334 334 334 333
345 346 346 346 346 346 343 340 336 334 334 334 334 335 335 334 333 334 336 339 340 342 342 342 343 343 344 345 346 346 348 349 349 349 348 348 347 345 344 342 342 342 342 342 342 342 342 342 343 343 343 343 344 344 343 343 344 343 344 344 345 346 347 346 345 345 345 345 344 343 341 341 340 339 340 340 339 338 337 337 336 335 335 334 333
345 346 346 346 346 347 347 345 340 337 336 335 334 333 334 333 333 333 333 334 337 339 340 341 342 343 344 345 345 345 346 347 348 348 348 348 348 349 348 346 344 341 341 342 342 341 341 341 341 342 343 343 343 343 343 343 343 344 345 345 345 345 345 345 346 346 346 347 347 346 343 341 340 339 339 339 340 340 339 338 336 335 335 333 331
345 345 346 346 346 347 348 348 344 339 336 336 336 335 333 333 333 333 333 333 334 335 336 338 339 340 342 343 344 345 344 344 345 345 347 348 349 349 349 348 347 344 342 341 340 339 339 339 339 339 340 341 341 341 341 341 342 343 344 345 345 345 345 346 347 347 347 347 347 346 344 342 341 341 340 340 340 341 340 338 335 334 334 333 331
345 345 346 346 347 347 347 348 347 344 338 335 335 336 335 335 334 333 333 333 333 333 333 334 336 337 338 339 341 344 345 344 343 343 344 346 346 347 347 347 347 345 344 343 342 340 339 338 338 338 338 338 339 339 339 340 340 340 341 343 344 344 344 345 346 347 346 346 345 345 344 343 343 342 342 341 340 340 339 338 336 334 334 332 330
346 347 347 347 347 347 348 348 348 348 344 339 336 336 335 335 335 334 334 333 333 333 332 332 333 334 335 336 339 343 346 346 345 344 344 345 346 346 346 346 346 346 346 346 345 344 343 341 339 338 337 336 336 336 336 337 338 338 338 339 340 341 342 341 341 342 344 344 345 345 345 344 343 342 341 340 339 338 337 337 336 333 331 331 329
347 347 348 349 348 348 348 348 348 349 349 347 344 342 340 339 338 337 336 335 334 333 333 332 332 332 333 334 336 341 345 347 347 347 347 346 347 348 347 346 346 346 346 347 347 346 346 345 344 342 341 339 337 337 336 336 336 335 336 336 337 338 340 339 337 337 340 342 344 345 345 344 343 343 341 338 336 336 335 334 332 331 331 332 331
348 347 346 346 347 349 349 350 350 350 350 350 349 349 348 347 346 344 343 342 341 339 336 334 334 334 334 334 336 338 342 345 347 348 348 348 348 349 349 348 347 347 347 346 346 346 346 346 346 345 344 343 343 342 341 340 338 337 336 335 334 336 337 337 337 337 338 339 339 341 341 339 337 337 336 335 334 334 333 332 332 332 334 337 338
350 349 348 347 347 350 352 352 352 352 352 352 351 351 351 351 351 349 349 349 349 347 344 340 338 338 338 337 337 338 339 342 344 346 347 347 348 348 348 348 348 348 347 346 345 345 345 345 345 345 345 345 345 345 344 343 343 342 341 340 337 335 335 335 335 336 336 337 336 335 336 334 332 331 332 332 333 333 332 332 334 336 338 340 341
350 351 351 351 350 351 352 352 352 353 353 353 352 352 351 351 351 352 352 352 352 353 350 347 344 343 342 341 339 339 339 339 340 342 343 344 346 346 347 347 347 346 346 346 346 345 344 344 344 344 345 345 345 346 345 345 345 345 345 345 343 341 339 338 336 336 336 337 336 333 332 333 333 331 330 332 334 334 335 336 337 339 341 341 342
349 349 350 350 350 350 350 350 350 351 351 351 351 351 351 352 352 353 353 353 353 354 353 352 350 348 348 347 345 345 343 340 339 340 342 343 344 345 346 346 345 345 345 345 345 345 345 344 344 344 344 344 345 345 345 345 346 346 346 346 346 345 344 343 342 342 342 342 341 339 336 336 337 336 336 337 338 339 339 340 341 342 343 343 343
347 347 347 347 348 348 348 349 349 349 350 350 350 350 350 351 351 351 351 352 352 352 353 353 352 351 351 350 350 350 349 345 343 343 344 345 346 346 345 345 345 345 344 344 344 344 344 344 344 344 344 344 344 344 344 345 345 345 345 345 346 346 345 344 344 345 345 345 345 344 343 342 342 342 341 342 342 342 343 343 343 344 344 344 345
342 342 342 343 344 345 345 346 346 347 347 348 348 349 349 349 350 350 350 350 350 351 351 351 351 351 351 351 351 351 350 348 347 347 346 347 348 348 347 347 347 346 346 345 345 345 344 344 344 344 344 344 344 344 344 344 344 343 343 344 344 344 343 341 341 342 342 343 342 342 342 342 342 342 343 343 343 344 344 344 345 345 345 346 346
337 337 338 340 341 342 342 342 342 343 343 344 346 346 346 346 347 348 349 349 350 351 351 350 351 351 351 351 350 350 350 349 349 349 349 349 349 349 350 349 349 349 348 348 347 347 346 345 344 344 344 343 344 344 344 344 344 343 342 342 342 342 341 340 340 341 342 342 343 343 344 344 344 343 343 343 344 345 347 347 346 346 347 347 348
331 332 334 336 337 337 338 338 338 339 339 340 341 341 342 342 343 344 345 346 347 348 348 349 349 350 350 350 350 350 350 350 350 350 350 350 349 350 350 350 349 349 349 349 349 348 347 346 346 346 345 345 344 345 345 345 345 344 343 343 342 342 341 342 342 343 344 346 348 348 349 349 349 348 347 346 347 348 350 349 349 349 349 349 349
325 325 328 331 332 333 332 330 329 330 330 331 333 335 336 337 339 340 342 343 344 344 345 346 346 347 347 347 347 348 349 350 350 350 351 350 350 350 351 351 351 350 350 350 350 350 349 348 348 347 347 346 346 345 345 345 346 345 345 345 344 344 344 344 344 344 346 349 350 350 351 351 351 351 351 350 350 351 352 352 352 352 351 351 351
323 323 323 324 325 327 328 325 323 322 323 325 328 331 333 335 337 340 342 342 342 343 344 344 344 345 345 345 346 346 347 347 348 349 349 350 350 351 351 351 352 352 352 352 352 351 351 350 350 349 349 349 348 348 347 347 348 348 347 347 346 346 346 346 346 347 349 350 351 350 350 351 351 351 351 351 351 352 352 353 353 353 353 352 352
324 325 325 323 322 322 324 325 325 325 326 329 333 335 336 336 337 339 340 340 339 340 340 341 341 341 341 342 343 343 344 345 346 346 347 348 348 349 349 350 351 351 352 352 352 352 352 351 351 351 350 350 350 349 349 349 350 350 350 350 350 350 350 350 350 351 351 351 351 351 351 351 351 351 351 351 351 351 352 352 352 353 353 353 353
320 321 322 323 322 321 321 322 325 327 330 332 335 336 336 336 337 337 337 336 335 333 333 333 333 333 334 336 337 337 339 339 340 342 343 344 346 347 347 348 349 349 350 350 350 351 351 351 351 352 352 352 351 351 351 351 351 351 351 351 352 351 352 352 352 352 352 352 352 351 351 352 352 351 351 351 351 352 352 351 351 351 351 352 353
313 313 313 315 317 320 321 320 321 325 329 331 332 333 333 333 333 332 330 328 326 323 322 323 324 325 328 330 331 332 332 332 333 334 335 337 340 342 344 345 346 346 347 347 348 348 348 348 349 350 350 350 350 351 351 351 351 351 351 352 352 352 352 352 352 352 352 352 352 352 352 352 352 352 352 352 352 352 352 352 352 351 351 352 352
308 309 309 310 311 314 318 319 319 321 324 327 329 330 330 329 329 327 326 324 321 318 316 317 318 321 324 326 328 329 329 330 330 331 331 332 335 337 338 339 340 341 342 343 344 344 345 346 347 348 348 348 349 350 350 350 350 351 351 351 351 351 351 351 352 352 352 352 352 352 352 352 351 352 351 351 351 351 351 351 351 351 352 352 352
307 307 307 308 308 309 312 314 316 317 319 322 325 327 327 326 326 325 324 323 322 320 318 316 316 317 319 321 323 324 325 327 328 329 330 331 332 333 333 333 333 333 334 335 335 336 337 338 339 341 342 343 343 344 344 345 346 347 347 347 347 348 348 348 349 349 350 350 350 351 351 351 351 351 351 351 351 351 351 351 351 351 352 352 353
307 307 306 306 307 307 308 308 310 312 314 315 318 320 321 322 322 321 320 320 320 320 318 317 315 315 315 316 317 318 319 320 322 325 327 329 330 330 330 330 329 329 329 329 329 329 329 329 330 331 332 332 332 333 334 336 337 339 340 342 343 344 345 345 345 346 346 347 347 348 349 349 350 350 350 351 351 351 351 351 351 351 352 352 352
306 306 306 306 306 306 306 306 307 308 311 313 315 317 317 318 319 320 319 318 317 317 316 316 315 314 314 315 315 315 316 316 316 318 321 323 325 326 327 327 327 327 327 327 327 326 326 326 326 326 327 327 327 328 328 329 330 331 333 335 337 339 341 342 342 343 344 344 345 346 347 346 347 348 348 349 350 350 351 351 351 351 351 352 352
306 306 306 306 306 306 306 306 306 306 308 312 316 318 318 318 317 318 318 318 317 317 316 316 315 315 314 314 314 315 315 315 315 315 315 316 317 318 319 320 321 321 322 322 321 321 321 321 321 321 322 323 324 324 325 326 326 327 327 328 329 332 336 339 341 342 343 343 343 344 345 345 346 347 347 347 348 349 349 349 350 350 350 350 351
304 304 304 305 305 305 305 305 305 305 306 307 310 313 316 317 318 318 317 317 317 316 315 315 316 316 316 316 315 315 315 315 315 315 314 314 314 314 314 315 315 315 316 315 316 316 315 315 315 315 316 316 317 318 319 320 322 323 324 324 325 326 328 330 333 337 341 343 344 344 344 344 344 345 345 346 346 347 347 347 348 349 349 349 349
304 304 304 304 304 304 305 305 305 305 306 307 307 309 312 315 317 319 320 319 318 317 315 315 316 317 317 317 317 317 317 317 316 316 315 315 315 314 314 314 314 314 314 314 313 313 313 313 313 313 313 313 313 313 313 314 315 316 318 319 321 322 323 324 324 326 330 335 337 339 342 344 344 343 344 345 346 346 346 347 346 346 346 347 348
305 305 305 305 305 305 306 306 306 306 307 307 308 310 314 317 319 319 320 321 320 319 318 317 316 316 317 317 317 317 318 318 317 317 317 316 316 316 315 315 315 314 314 314 314 314 314 314 313 313 313 313 313 312 312 312 312 312 313 313 314 316 318 320 321 322 323 324 326 328 331 335 338 340 342 344 344 344 344 345 345 344 344 345 346
305 305 305 305 306 306 306 306 307 307 308 309 310 311 314 317 319 320 320 321 321 320 320 319 319 317 316 316 317 317 317 317 317 317 316 316 316 316 316 315 315 315 315 315 314 314 314 314 314 314 313 313 313 313 312 312 312 312 312 312 312 312 313 314 316 318 320 321 322 322 323 326 329 331 334 337 339 340 340 341 341 342 342 343 344
305 305 306 306 306 307 307 307 307 308 309 310 312 314 314 315 317 318 319 320 320 320 320 320 318 317 316 316 317 317 317 317 316 316 316 316 316 316 316 316 316 316 315 315 315 315 314 314 314 314 314 313 313 313 313 312 312 312 312 312 311 312 312 312 312 314 315 317 319 320 321 322 323 324 326 329 331 333 334 336 338 340 341 342 342
304 305 305 306 306 307 307 308 308 308 308 309 311 314 315 316 317 317 317 318 318 318 318 318 317 316 316 317 317 317 317 317 317 317 317 317 317 317 316 316 316 316 316 315 315 315 315 314 314 315 314 314 314 313 313 313 313 312 312 312 312 312 311 311 311 312 313 314 315 317 318 320 321 322 322 323 325 326 327 329 332 335 337 340 341
305 305 305 306 306 307 307 307 307 308 308 308 309 311 313 315 316 317 317 317 317 317 318 318 317 317 317 318 318 317 317 317 317 317 317 317 317 317 316 317 317 317 317 316 316 316 315 315 315 314 314 314 314 314 314 313 313 313 313 312 312 312 312 312 312 312 312 313 314 315 316 318 319 320 321 321 322 322 323 324 325 327 330 333 336
304 305 305 306 306 306 307 307 307 307 307 307 308 309 311 313 315 316 316 316 316 317 317 317 317 317 317 318 318 318 318 318 318 317 317 317 317 317 316 317 317 317 317 316 316 315 315 315 314 314 314 314 313 313 313 313 313 313 313 312 312 312 312 312 312 312 312 313 313 314 315 316 317 318 319 320 321 321 322 322 323 323 324 326 328
303 304 304 304 305 305 306 306 306 306 307 307 307 307 309 312 313 315 315 315 315 316 316 315 315 316 316 317 317 317 317 318 318 318 318 317 317 317 317 317 317 316 316 316 315 315 314 314 314 313 313 312 312 312 312 312 312 312 312 312 312 312 312 312 312 312 312 313 313 314 314 315 316 317 318 318 319 319 320 320 321 321 322 323 324
303 303 303 303 303 303 303 303 304 304 304 304 305 306 308 310 312 313 314 315 314 314 314 314 314 314 315 315 315 315 315 316 316 317 317 316 316 316 316 316 316 316 315 315 314 314 313 313 312 311 311 310 310 310 310 310 311 311 311 311 311 311 311 312 312 313 313 313 313 314 314 314 315 315 316 316 317 317 318 318 318 319 320 321 321
302 302 302 301 301 301 301 301 301 301 301 302 302 302 304 308 310 311 312 313 312 312 312 312 312 312 313 313 313 313 313 313 313 314 314 315 315 315 315 315 315 315 314 314 313 312 311 311 310 310 309 309 309 309 309 309 309 309 310 310 310 310 311 311 312 312 312 312 313 313 313 313 314 314 314 314 315 315 316 316 316 317 318 319 319
302 302 301 301 301 301 301 301 301 301 301 301 300 301 304 307 309 310 311 311 310 310 310 310 310 310 310 310 310 309 309 310 311 312 313 313 314 314 314 314 314 313 313 312 311 310 310 310 310 309 309 309 308 308 308 308 308 308 309 309 309 309 310 310 311 311 311 311 312 312 312 313 313 313 313 312 313 313 314 314 315 315 316 317 318
302 301 301 301 301 301 301 301 301 301 301 301 302 304 307 308 309 309 309 309 309 308 308 308 308 309 308 308 307 307 307 308 310 311 312 312 313 313 313 313 313 312 311 310 310 310 310 309 309 309 308 308 308 308 307 307 307 307 308 308 308 309 309 309 309 309 309 310 310 311 312 312 312 313 313 312 313 313 313 314 314 315 315 315 316
301 301 301 301 301 301 301 301 301 301 302 303 305 306 307 308 308 307 307 307 307 307 307 307 307 307 307 306 305 305 306 308 309 310 310 311 311 312 312 312 311 311 310 309 309 309 309 308 308 308 307 307 307 306 306 306 307 307 307 307 307 308 308 308 308 309 309 309 309 310 312 312 312 313 314 313 313 313 313 313 314 314 315 315 315
301 301 301 300 301 301 301 302 303 304 305 305 306 306 306 306 306 306 306 306 306 306 306 306 306 306 306 305 305 305 306 307 308 308 308 309 309 310 310 309 309 309 309 309 308 308 307 307 307 306 306 306 306 306 306 306 306 306 306 306 307 307 308 308 309 309 310 310 310 310 311 312 312 313 313 313 313 313 313 314 314 315 315 315 316
300 301 300 300 300 300 300 302 304 305 305 305 305 305 305 305 305 305 305 304 305 305 304 304 305 305 305 305 305 305 305 305 306 306 307 307 307 307 308 307 307 307 307 307 307 306 306 306 306 306 305 305 305 305 305 305 305 305 305 306 306 307 308 308 309 309 310 310 310 310 310 311 311 312 313 313 313 313 313 314 314 314 315 315 316
300 300 300 300 300 300 300 300 302 303 304 304 304 304 304 304 304 304 304 303 303 303 303 303 303 304 304 304 305 304 304 304 304 305 305 306 306 306 306 306 305 305 305 305 305 305 305 305 305 305 305 305 305 304 304 305 305 305 305 306 306 306 306 306 307 307 307 307 308 308 309 309 309 310 311 312 312 312 312 313 313 313 314 315 316
300 300 300 300 299 299 299 299 300 301 302 302 303 303 302 302 302 302 302 302 302 302 302 302 302 303 303 303 303 303 303 303 303 303 304 304 304 304 304 304 304 304 304 304 304 304 304 304 304 304 304 304 304 304 304 305 305 305 305 305 305 304 304 304 305 305 304 304 304 305 306 306 307 308 308 309 309 309 310 311 311 311 312 314 314
299 299 299 299 299 299 299 299 299 299 300 300 301 301 301 301 301 301 301 301 301 301 302 302 302 302 302 302 302 302 302 302 302 302 302 303 303 303 303 303 303 303 303 303 303 303 303 303 303 303 302 303 303 303 304 304 304 305 305 304 303 302 302 302 302 301 300 300 301 302 303 304 305 306 306 306 307 308 309 309 309 310 310 311 311
299 299 299 298 298 298 298 298 298 299 299 299 299 299 300 300 300 300 300 300 300 300 300 301 301 301 301 301 301 301 301 301 301 301 301 301 302 302 302 302 302 302 302 302 302 301 301 301 301 301 301 301 302 302 303 303 303 303 303 302 301 300 300 299 299 298 297 298 298 299 300 301 302 303 304 304 305 306 307 308 308 309 309 309 309
299 298 298 298 298 298 298 298 298 298 298 298 298 298 299 299 299 299 299 299 298 298 299 299 299 299 300 300 300 300 300 300 300 300 300 301 301 301 301 300 300 301 300 300 300 300 300 300 300 300 300 300 300 300 301 301 301 301 300 300 299 299 298 298 298 297 296 296 297 297 298 298 299 301 302 303 304 305 306 307 308 308 308 308 308
298 298 298 298 298 298 297 297 297 297 297 298 298 298 298 298 298 297 297 298 298 298 297 298 298 298 298 298 299 299 299 299 299 299 300 300 300 300 300 300 299 299 299 299 299 299 299 299 299 298 298 298 298 298 298 299 299 298 298 298 298 297 297 297 297 296 296 296 296 296 296 297 298 299 301 303 304 305 306 307 307 307 307 308 308
298 298 298 298 298 297 297 297 297 297 297 297 297 297 297 297 297 297 297 296 297 297 297 297 297 297 297 297 297 298 298 298 298 298 298 298 298 298 298 298 298 298 298 298 298 298 298 298 297 297 297 297 297 296 296 296 296 296 296 296 296 296 296 296 296 296 295 295 295 296 296 296 297 298 299 302 304 305 305 306 306 307 307 308 308
Wind_Speed
16 17 17 17 16 15 16 15 15 15 15 15 13 12 12 11 10 9 9 8 8 7 7 8 9 8 8 8 9 9 9 8 8 8 8 8 8 9 9 9 10 10 10 11 11 11 11 11 11 11 11 12 12 12 13 14 14 14 13 13 13 13 13 14 16 19 19 17 16 15 14 14 14 13 14 15 15 16 17 18 18 19 18 18 18
16 16 16 16 16 15 16 16 16 16 16 15 14 13 12 11 10 10 10 10 9 9 8 8 9 9 9 9 8 9 9 8 8 8 8 8 9 9 9 9 9 10 10 11 11 11 12 11 11 11 11 12 12 12 12 13 14 14 14 14 14 13 14 14 16 19 20 20 18 17 15 15 15 14 15 15 16 16 16 16 16 16 15 15 15
14 14 14 14 14 14 15 16 16 16 16 16 15 14 12 11 11 10 10 10 10 10 9 9 10 9 9 9 9 9 9 9 8 9 9 9 9 9 9 9 9 9 10 10 10 11 12 12 11 11 11 12 12 12 12 12 13 14 14 14 13 14 14 14 15 18 20 21 19 18 17 17 17 17 16 16 16 16 15 14 14 13 13 13 13
15 14 14 13 12 12 13 15 16 16 16 15 15 14 13 12 12 11 11 10 10 10 10 10 10 10 10 9 9 9 10 10 10 10 10 10 10 9 9 9 9 9 9 9 9 10 11 11 11 10 11 12 11 11 12 12 13 13 13 14 13 13 13 14 15 16 18 20 19 18 18 18 18 17 17 16 15 14 13 12 12 11 12 13 14
16 15 14 14 13 12 12 13 15 16 16 16 15 15 14 14 13 13 12 12 11 10 10 10 11 11 11 10 10 10 10 10 10 10 10 10 10 9 9 9 9 10 10 10 9 10 10 10 10 10 11 12 11 11 12 12 13 13 14 14 14 14 14 14 14 14 16 18 19 18 17 17 16 15 14 14 14 13 12 13 13 13 13 14 15
18 17 16 15 14 13 12 12 13 15 16 16 16 16 16 16 15 14 14 14 13 12 11 11 11 11 11 11 11 11 11 11 10 10 10 10 10 10 10 10 10 10 11 11 11 11 11 11 11 11 11 12 12 12 12 12 13 14 14 14 14 14 14 14 14 15 16 17 18 18 17 16 15 13 12 12 14 15 15 16 16 15 16 17 17
21 19 18 17 16 15 14 13 13 15 17 17 17 18 17 17 17 16 15 15 15 14 14 14 13 13 12 12 12 12 11 12 12 11 11 11 11 11 10 10 10 11 11 11 11 12 12 12 12 12 12 12 13 13 13 13 13 14 14 14 14 14 14 14 14 16 17 17 17 18 17 15 14 14 14 14 16 17 18 19 19 18 19 20 20
23 21 20 19 18 16 16 15 14 15 16 18 18 18 18 18 18 18 17 17 16 16 16 16 16 15 15 14 14 13 12 12 12 12 12 11 11 11 11 11 11 10 10 10 10 10 11 11 12 12 13 13 13 13 13 14 14 15 15 14 15 15 15 15 15 16 16 17 17 17 17 17 16 16 16 16 17 18 19 20 21 22 23 23 23
22 21 20 20 19 18 17 17 16 15 15 17 18 18 18 18 18 19 18 18 18 17 17 17 17 17 16 16 15 14 13 13 12 11 11 10 10 10 11 10 11 11 11 10 10 10 10 10 11 12 12 12 12 13 13 14 14 15 15 15 16 16 17 17 17 17 17 17 18 17 18 19 20 19 19 19 19 20 21 22 24 25 26 26 26
20 19 18 18 18 18 18 18 17 17 17 17 16 17 17 17 18 18 19 18 18 18 18 18 18 18 18 18 17 16 15 14 13 11 11 10 10 11 11 11 11 12 12 12 12 11 11 11 11 11 11 11 12 12 12 13 14 15 16 16 16 16 17 17 17 18 18 19 20 20 20 22 22 22 21 21 22 22 23 24 25 25 26 27 28
18 17 17 18 18 18 19 18 18 18 19 19 18 17 16 16 17 18 18 18 18 18 19 19 19 19 19 18 18 17 17 16 14 13 12 12 12 12 13 13 13 14 14 14 14 13 13 13 12 12 11 10 10 11 11 12 13 14 15 15 16 16 17 17 18 18 18 19 21 21 23 24 23 23 23 23 24 24 24 25 25 24 24 26 28
17 17 19 21 20 19 18 18 18 19 20 20 20 19 18 18 18 19 19 19 19 19 19 19 19 19 18 18 18 17 18 17 16 16 15 14 14 14 14 15 15 15 15 15 15 15 14 14 14 14 13 11 11 11 11 11 11 12 13 14 15 17 17 18 19 19 19 20 22 22 23 24 24 24 23 24 24 24 24 24 24 24 25 26 28
15 17 19 19 17 16 16 16 16 17 18 20 20 20 20 19 18 20 21 21 20 20 20 20 19 18 18 18 17 17 17 17 17 17 17 16 16 15 15 15 15 16 16 17 17 17 17 16 16 16 15 14 14 13 13 13 12 13 13 14 15 15 16 17 18 19 20 21 23 24 24 24 24 24 22 22 23 23 23 23 24 25 27 28 29
12 14 15 14 12 11 11 12 13 13 15 15 16 17 18 17 17 19 20 19 18 19 20 20 20 19 17 17 16 16 17 17 18 18 18 17 17 17 16 16 16 16 16 16 17 18 18 19 19 18 18 17 17 16 16 16 16 16 16 16 16 15 15 16 17 17 18 20 22 23 23 22 24 23 21 21 23 23 24 25 25 27 29 30 31
11 11 11 11 11 11 10 9 9 9 10 10 10 11 12 12 13 14 15 16 14 15 17 18 19 19 19 18 17 16 18 19 18 18 18 18 18 17 17 17 17 17 17 17 17 18 19 20 21 21 21 20 19 19 19 20 20 19 19 19 18 18 18 17 17 17 19 20 21 23 23 23 23 24 23 23 24 25 26 28 29 30 31 32 33
8 8 8 8 9 9 8 7 6 6 6 6 5 5 5 7 8 9 11 12 12 13 15 16 17 18 18 19 17 17 19 20 19 19 20 20 20 20 19 20 20 20 20 19 19 19 20 21 22 23 23 23 22 21 22 22 22 22 22 22 21 21 21 20 19 19 21 22 24 25 26 26 26 26 26 26 27 28 29 31 32 32 33 34 36
12 10 10 10 9 8 6 5 4 3 3 3 4 3 2 3 4 5 7 8 8 10 12 13 14 14 15 16 17 17 20 21 21 21 21 22 22 22 22 22 23 23 23 22 22 22 22 22 23 24 24 25 24 24 25 25 25 25 25 25 25 25 24 23 23 24 25 26 27 28 29 29 29 29 29 28 28 29 29 32 33 32 32 34 36
15 13 12 11 10 9 8 6 5 4 4 2 1 2 2 2 1 2 3 5 6 7 8 9 9 10 11 12 12 14 17 19 20 20 21 21 22 22 23 24 25 25 25 24 23 23 22 23 24 25 24 25 25 26 26 27 28 28 29 29 29 29 28 28 28 28 28 28 28 29 30 31 31 31 30 30 29 29 30 33 32 31 31 33 34
13 12 11 10 10 9 9 9 9 10 9 8 7 5 4 2 1 0 2 5 5 5 5 5 5 6 7 8 8 8 11 13 15 16 17 17 19 20 21 22 23 24 25 24 23 23 22 23 25 26 26 26 25 25 26 27 28 29 29 30 31 32 31 31 31 31 30 30 30 31 32 32 31 31 30 29 29 29 30 32 31 30 31 32 32
10 9 9 8 8 8 8 7 8 8 9 8 8 8 7 6 5 3 1 2 2 2 2 1 2 3 4 5 6 6 8 10 11 12 13 14 15 16 17 18 19 21 22 22 21 20 20 21 24 26 27 27 27 27 26 27 27 27 28 28 30 31 31 32 32 31 32 32 32 33 32 32 31 30 30 29 28 28 29 29 29 29 30 31 30
8 7 6 6 6 6 7 7 6 6 7 7 6 6 5 5 3 2 1 1 2 2 2 1 1 1 2 2 3 4 6 8 9 10 11 12 13 15 16 16 18 19 20 20 18 17 18 19 22 25 26 26 26 27 27 27 27 27 27 27 28 29 30 32 32 32 32 33 33 33 32 31 29 28 28 28 28 27 28 28 28 29 29 30 30
5 5 4 4 4 4 5 7 7 7 7 7 6 6 5 4 3 2 1 1 2 2 2 2 2 2 2 2 3 4 4 5 7 7 7 9 11 13 15 16 17 17 17 16 16 16 17 18 20 22 23 24 24 25 26 26 27 27 28 28 28 29 30 31 32 32 32 33 32 32 32 31 31 30 29 28 27 27 27 27 28 29 30 31 31
3 3 3 3 3 4 4 5 6 7 7 7 7 6 6 5 4 3 2 1 1 2 2 2 1 2 2 2 3 4 4 4 5 6 6 8 9 10 12 14 14 15 14 14 14 14 15 16 18 20 21 22 23 23 23 24 25 26 27 28 28 29 30 30 31 32 32 32 33 34 33 32 32 32 31 30 30 29 29 28 29 29 30 31 32
1 1 2 2 3 4 4 4 5 5 6 6 5 5 5 4 4 3 2 1 0 0 1 1 1 2 2 2 3 3 3 4 5 5 5 7 8 9 10 11 11 11 12 12 13 13 13 14 16 17 19 19 20 21 21 22 24 24 25 26 27 28 29 30 30 31 32 32 33 33 32 32 33 32 32 32 31 31 32 31 30 30 29 30 30
2 2 2 2 3 3 3 4 4 5 5 5 5 4 4 3 3 3 3 3 3 3 2 2 2 2 3 3 3 3 3 4 4 5 5 6 6 7 8 8 9 9 9 10 11 11 12 13 14 15 16 16 17 18 19 19 20 21 23 25 26 26 25 26 27 29 30 31 31 31 30 29 28 27 29 31 32 32 32 32 32 31 30 29 30
3 3 4 4 4 3 3 4 4 5 5 5 5 5 5 5 5 5 5 5 5 5 4 4 4 4 4 4 3 3 3 3 3 4 5 6 7 7 7 8 8 9 9 10 11 11 12 12 13 13 14 14 14 15 16 16 17 18 19 19 18 17 17 18 20 22 24 26 28 28 27 25 25 26 28 30 30 29 29 30 31 30 28 28 30
4 5 5 5 5 5 4 4 4 4 5 5 5 5 5 5 5 5 5 6 5 5 5 4 4 4 4 4 4 4 3 3 3 4 5 7 8 9 10 11 11 11 11 12 12 12 13 13 14 14 14 13 14 14 15 15 15 16 16 15 14 13 12 13 15 16 17 19 21 21 21 22 24 25 26 25 24 23 23 24 25 24 22 23 27
4 4 5 6 6 5 5 5 4 5 5 6 6 6 6 6 5 5 5 5 5 5 4 4 4 4 4 4 4 4 4 4 5 5 7 8 9 10 12 13 14 14 14 15 15 15 15 16 16 16 15 15 15 15 15 16 16 16 15 15 15 15 14 14 14 14 14 16 18 19 19 20 20 21 21 22 22 22 22 23 23 23 22 23 24
2 3 4 5 5 6 6 6 6 6 6 7 7 7 6 6 5 5 6 6 6 5 5 5 4 4 4 4 4 4 5 6 6 7 8 9 10 11 11 12 14 14 15 16 16 17 18 18 18 18 18 18 17 17 17 18 18 18 18 18 18 18 17 16 16 16 17 18 19 20 20 19 19 20 21 22 22 23 24 25 25 25 24 25 26
1 1 2 3 3 4 4 5 5 6 6 5 5 5 5 5 5 6 6 7 7 7 6 6 5 5 5 5 6 6 6 6 6 7 8 9 10 11 12 13 14 15 16 17 17 18 19 19 19 20 20 20 20 20 20 20 20 20 20 21 21 22 22 21 20 20 19 20 21 22 22 21 21 21 21 21 20 20 21 22 25 27 26 25 26
4 3 3 2 3 3 3 4 4 4 4 4 4 3 3 3 5 6 6 7 7 7 7 7 7 6 6 6 7 7 7 7 7 8 8 9 10 10 11 12 12 13 14 15 16 18 19 20 20 20 21 21 21 22 22 22 22 22 22 22 22 22 23 24 24 24 23 23 24 25 25 25 25 25 25 24 24 24 23 23 25 26 27 27 27
4 4 5 5 4 4 4 4 4 4 3 3 3 3 4 4 5 6 7 8 8 8 8 8 8 8 7 8 8 8 8 8 8 9 9 10 10 11 11 11 12 13 13 14 15 16 17 19 20 21 22 22 22 23 23 23 24 25 25 25 24 24 24 25 26 26 26 26 27 27 27 27 28 29 29 29 30 31 31 29 27 26 27 27 28
5 5 5 5 5 5 4 5 4 4 4 4 2 1 2 3 4 6 7 9 9 10 10 10 10 9 9 9 8 8 9 8 9 9 10 11 11 12 13 13 14 15 16 16 17 18 18 18 19 20 21 22 23 23 23 23 24 25 25 26 27 27 27 26 27 27 27 27 28 28 29 29 30 30 31 32 33 34 34 33 31 29 28 27 27
6 6 5 4 4 4 4 5 5 5 5 5 4 3 2 1 2 3 4 6 7 9 10 10 10 9 8 9 9 10 10 9 10 10 10 11 12 13 15 16 17 18 18 19 19 19 19 20 20 19 20 21 23 23 23 23 24 24 25 26 27 27 28 28 28 28 28 28 28 28 28 29 30 30 32 33 34 35 35 35 34 33 31 30 29
7 7 6 5 5 4 4 5 5 5 6 6 5 5 4 3 2 2 3 3 4 5 6 7 7 8 9 10 11 11 12 11 11 12 13 13 14 15 17 17 16 15 15 16 16 16 16 17 18 20 20 19 20 20 21 23 24 25 27 27 28 28 28 28 28 28 28 29 29 29 29 30 30 30 31 32 33 34 35 36 36 36 35 35 35
7 7 7 7 6 6 6 6 6 6 7 6 6 7 7 6 4 3 3 4 5 6 6 7 7 9 10 12 12 12 13 13 13 14 14 15 16 18 18 16 14 14 14 13 13 12 12 13 16 19 19 18 17 18 19 21 22 24 28 30 30 30 30 29 28 28 28 28 29 29 30 30 30 31 31 32 32 33 34 35 36 37 37 37 38
7 6 7 7 7 7 7 7 8 8 8 8 7 7 7 7 6 5 4 5 6 7 8 9 9 9 10 13 15 15 15 15 15 16 16 17 18 19 16 13 11 13 14 12 12 13 13 13 14 18 20 20 21 22 23 23 22 22 27 31 32 32 31 30 30 30 29 29 30 30 30 30 30 31 31 32 33 33 33 33 34 35 36 37 38
8 7 7 7 7 7 8 8 9 9 9 9 9 8 7 6 6 5 5 6 7 7 7 8 8 8 8 10 14 17 17 16 16 16 16 16 17 16 13 11 10 10 10 10 12 15 16 15 16 20 23 24 24 25 27 28 26 25 28 31 32 31 31 31 30 30 30 30 30 30 30 31 31 31 31 32 32 33 33 32 32 34 35 36 36
9 8 7 7 7 7 7 8 9 9 10 10 9 9 8 6 5 5 4 5 6 6 6 6 7 7 7 7 10 14 17 16 15 14 12 12 12 12 12 13 12 12 11 11 13 15 17 18 20 22 23 24 25 26 28 30 30 28 27 28 29 30 30 29 29 29 29 29 29 29 31 32 32 32 31 31 31 32 32 33 33 33 34 35 36
9 9 8 8 7 7 7 8 8 9 9 9 9 9 6 4 4 4 4 4 5 5 5 5 6 7 8 8 9 13 15 14 12 11 10 10 11 12 12 14 14 14 15 15 16 17 18 19 20 22 22 23 24 25 27 29 28 25 24 25 26 27 27 27 26 26 26 25 27 28 30 31 32 32 33 33 32 31 32 33 34 34 34 34 35
10 10 10 9 8 7 7 7 7 8 8 8 7 6 3 2 3 4 4 4 5 5 5 6 6 7 9 12 13 14 13 11 9 9 9 10 11 13 13 14 14 15 16 17 18 18 19 19 21 23 24 24 23 23 24 24 21 20 22 24 25 25 25 24 24 23 23 23 25 27 29 30 30 31 33 33 33 32 32 32 33 34 34 34 33
9 10 10 10 9 8 7 7 7 6 6 5 4 3 2 3 4 4 4 5 5 6 6 7 7 7 9 12 14 13 11 9 8 9 9 9 11 13 15 16 17 18 19 19 20 20 21 23 24 23 23 23 24 24 24 23 21 21 22 23 23 23 24 23 23 24 26 26 27 28 30 31 31 32 34 33 33 32 32 31 32 32 33 33 33
8 8 9 9 9 9 8 6 5 3 2 2 2 2 3 3 4 4 5 5 6 6 6 7 7 7 8 11 12 12 9 8 8 9 10 10 11 13 15 17 19 21 21 21 21 23 24 24 23 21 21 24 27 27 26 25 25 24 23 22 22 23 24 24 25 27 30 31 32 32 33 33 31 32 33 33 32 32 32 32 32 32 32 33 33
6 6 7 7 7 7 7 5 2 1 1 2 2 2 3 3 4 4 4 5 5 6 6 7 8 8 8 9 10 9 8 8 9 10 11 11 11 13 14 14 16 19 22 22 22 23 23 22 21 21 23 25 25 25 25 25 25 24 24 25 26 25 25 26 27 28 29 31 32 33 33 32 31 31 32 32 32 32 32 32 32 32 32 32 33
4 5 5 5 5 6 6 5 4 2 2 2 2 2 3 3 4 4 5 5 5 6 6 7 8 8 8 9 9 8 8 10 10 11 11 11 11 13 13 11 12 15 19 19 19 20 22 21 21 22 23 23 22 23 24 24 24 25 26 27 27 27 26 25 26 26 27 28 29 30 31 32 31 31 31 31 31 31 32 32 32 32 32 33 33
3 3 4 4 5 5 5 5 5 4 3 2 2 2 3 3 4 4 5 5 6 6 6 7 7 8 8 9 9 9 9 10 10 11 12 12 12 13 14 12 11 13 14 16 18 21 22 22 22 22 22 22 22 23 24 25 25 26 26 27 26 25 24 24 24 24 24 24 25 27 29 30 30 30 30 30 30 31 31 31 31 31 31 32 33
3 3 4 4 5 5 5 6 6 6 5 5 4 4 3 4 4 4 4 5 5 6 6 6 7 7 8 9 10 10 10 10 11 11 12 13 13 14 14 13 12 13 15 17 18 19 19 19 19 19 19 21 22 23 23 24 24 24 25 25 24 24 23 23 23 22 21 22 24 25 26 26 27 27 28 29 30 30 31 31 31 30 30 31 32
3 3 4 5 5 6 6 6 7 7 7 7 7 6 4 4 4 4 5 5 6 6 6 6 7 7 8 9 10 10 10 11 11 12 12 13 13 13 14 14 14 15 16 16 16 15 15 17 17 17 18 20 22 23 23 23 22 22 23 22 22 21 21 22 22 22 21 22 23 23 24 25 26 26 27 28 29 30 31 31 30 30 30 30 31
2 3 4 5 6 6 7 7 7 8 8 8 8 7 5 4 6 7 7 7 7 7 7 7 8 8 9 10 10 10 11 11 12 12 12 12 12 12 13 14 14 15 15 15 15 14 14 14 14 15 17 19 19 21 22 22 21 21 21 20 20 20 20 20 21 21 22 23 23 24 25 26 26 27 28 29 29 29 29 29 29 29 30 30 31
2 3 4 5 6 7 7 7 7 7 8 8 7 7 7 7 8 8 8 8 8 8 8 8 9 9 10 11 11 11 11 11 12 12 12 12 13 13 13 13 13 13 14 15 15 14 12 12 12 14 15 15 15 16 18 18 18 18 18 18 18 19 19 19 19 20 21 23 24 25 25 26 27 27 28 28 28 28 28 27 28 29 30 30 29
1 3 5 6 7 7 7 8 7 8 8 8 7 6 6 7 7 6 7 8 9 8 8 9 9 10 10 11 11 11 11 12 12 13 13 13 13 13 13 14 15 14 14 15 14 13 12 12 12 11 12 12 12 13 14 15 16 16 16 16 17 17 17 18 18 19 20 22 24 24 25 26 27 27 27 28 27 27 26 26 26 27 28 28 27
Wind_Direction
221 218 214 213 210 207 206 206 207 211 213 212 211 209 208 208 207 207 207 208 213 220 226 230 232 231 229 228 227 226 226 226 229 235 242 248 254 258 259 258 256 255 253 252 251 252 253 255 258 261 265 268 270 273 276 278 280 280 282 285 288 290 292 293 294 297 302 306 308 312 313 311 311 309 305 302 300 301 301 302 305 308 310 312 312
218 217 215 214 213 210 209 208 208 211 215 217 216 214 212 210 212 216 216 214 215 221 227 231 233 236 237 238 235 231 228 228 233 240 247 253 257 260 263 264 262 260 257 256 255 255 257 259 261 262 264 267 269 271 272 272 274 277 281 285 288 291 292 291 292 294 298 302 305 307 309 309 309 311 312 311 309 309 307 308 312 314 316 318 318
214 213 214 214 216 216 215 212 211 212 216 218 218 219 218 215 216 221 221 220 220 222 226 230 233 236 240 244 242 238 235 235 241 248 251 254 258 262 266 267 266 265 264 261 260 259 260 262 264 266 268 269 270 272 272 272 272 274 278 282 286 290 290 289 290 292 294 297 300 303 304 303 304 307 310 312 313 314 315 319 322 322 324 325 321
213 211 213 215 218 221 222 219 216 215 218 222 222 222 224 223 221 221 224 226 226 225 227 230 234 236 238 241 242 242 242 244 249 254 254 256 259 262 266 267 268 269 269 268 266 265 264 265 266 268 269 269 270 272 275 276 278 279 281 284 286 289 290 290 291 293 294 295 298 299 300 300 302 306 310 312 314 316 320 325 325 323 324 323 319
219 217 216 218 219 222 227 228 224 221 221 225 227 228 230 232 231 228 227 229 231 232 233 234 237 239 240 240 239 238 240 244 249 253 255 258 260 263 266 268 270 271 270 270 270 268 268 269 270 271 271 273 273 274 276 279 281 284 286 289 290 289 290 291 293 293 293 295 297 299 300 302 304 307 312 315 317 319 321 323 322 321 320 318 318
227 227 226 226 224 224 226 228 229 227 225 226 227 229 231 233 235 235 234 234 235 235 236 237 239 242 244 245 244 242 241 242 245 247 251 257 261 265 268 270 271 271 271 272 271 271 270 269 270 272 273 276 278 280 282 283 285 287 289 291 292 291 291 294 295 295 294 294 296 298 303 306 305 308 312 315 317 320 322 320 319 319 321 317 315
231 233 234 235 233 230 228 227 229 230 229 228 228 229 231 232 234 236 237 237 239 239 239 239 240 241 243 244 245 246 245 245 245 244 246 252 258 264 269 273 273 271 271 273 274 274 274 273 273 273 274 277 280 282 284 285 286 287 288 289 290 291 293 295 295 294 292 292 294 298 303 305 304 305 309 310 313 318 322 321 317 316 319 319 315
234 235 236 237 238 236 233 231 230 230 231 233 233 232 232 233 234 235 236 236 238 240 243 245 246 245 243 241 240 242 243 244 245 244 244 248 255 263 269 273 274 274 273 274 274 274 275 276 277 277 277 279 280 282 284 286 287 287 287 288 288 288 290 291 290 289 288 288 290 294 298 299 299 302 305 307 311 316 321 321 318 316 316 316 315
236 236 237 239 240 239 237 235 234 233 233 234 237 238 237 237 237 237 238 238 238 239 240 244 248 249 247 244 241 240 241 242 243 242 243 248 255 264 269 272 273 275 278 279 279 277 276 275 275 275 276 277 278 280 282 285 287 289 290 291 290 289 290 290 289 287 285 284 285 289 293 294 297 301 304 305 308 312 315 315 315 315 316 314 312
233 234 236 240 242 242 241 240 239 239 239 238 238 239 241 241 241 241 240 239 239 239 239 240 244 248 250 249 246 243 243 244 244 242 243 247 255 264 268 269 270 272 276 279 279 280 280 277 277 276 275 275 277 279 280 282 284 286 289 291 291 292 292 292 291 289 286 283 283 287 290 291 295 299 301 303 306 310 312 312 312 314 315 313 311
223 227 234 240 243 245 245 244 243 243 244 243 240 240 243 246 247 245 242 240 239 239 239 239 240 244 249 251 250 248 248 248 248 247 244 244 251 259 264 267 267 268 270 272 272 275 277 277 278 276 273 273 277 279 278 279 281 283 284 285 285 285 285 287 288 288 286 284 283 285 287 288 292 296 298 302 306 308 309 310 311 313 313 311 310
219 226 235 240 243 246 247 247 248 247 247 246 244 243 245 249 250 247 244 243 243 242 240 239 238 241 245 250 252 252 253 253 252 252 250 248 251 257 262 266 268 268 268 268 268 269 270 272 275 276 273 271 271 274 274 275 277 280 281 281 279 278 278 279 280 282 282 283 283 283 284 287 291 294 298 302 304 304 305 306 307 308 308 307 307
217 222 231 238 242 244 244 244 245 244 244 245 244 244 246 247 245 242 242 245 246 246 245 244 243 244 247 252 255 256 256 255 253 252 250 250 252 257 263 267 270 271 270 270 270 269 269 269 270 271 271 271 270 271 271 272 274 276 278 278 277 276 276 275 276 278 280 281 282 283 285 288 290 292 296 299 299 300 300 301 303 304 303 303 303
200 206 215 221 222 223 228 234 236 235 237 237 237 238 239 240 238 237 240 244 246 246 246 246 246 247 250 253 256 258 258 255 253 252 249 248 250 254 261 267 271 273 273 273 273 272 272 272 272 270 269 270 271 273 275 276 275 275 275 276 277 277 276 275 276 278 279 280 282 284 286 288 289 290 292 293 294 296 297 297 298 298 298 299 300
177 183 190 191 187 185 189 201 209 210 217 224 227 228 228 230 234 235 238 241 244 246 245 245 244 245 246 248 249 252 255 257 258 258 256 254 254 256 259 265 270 273 275 276 277 276 275 274 274 273 272 272 272 273 276 276 275 274 273 273 275 276 274 273 275 279 280 281 282 284 286 286 287 289 290 291 291 293 295 296 295 295 296 298 299
143 143 145 148 159 168 170 173 174 176 186 197 205 213 218 225 232 237 241 243 244 245 244 243 244 244 244 245 244 245 252 256 258 260 261 262 263 264 266 267 270 272 274 276 278 279 279 277 275 273 272 272 273 274 275 274 272 271 269 270 271 272 272 273 275 279 281 282 283 284 284 284 284 285 286 288 289 291 293 294 293 295 297 298 298
110 107 107 113 123 134 141 152 165 173 187 200 207 218 230 226 224 235 242 239 236 238 243 246 247 247 248 250 248 249 254 257 258 259 262 263 264 267 269 271 272 272 273 274 276 278 279 279 278 275 272 271 271 272 272 272 272 271 270 270 271 272 274 277 279 280 281 281 282 282 283 284 284 284 284 284 286 288 289 288 290 294 295 295 296
106 106 104 104 105 101 95 92 88 79 72 73 136 193 219 232 228 245 248 239 232 233 240 248 251 251 254 256 256 256 258 260 260 260 261 262 264 268 271 272 272 272 271 272 273 275 276 277 278 278 277 274 272 271 273 274 274 273 272 272 272 273 275 277 279 281 283 283 284 286 288 288 287 285 283 283 283 284 283 284 287 290 289 291 294
107 108 106 102 97 89 80 75 72 73 73 72 77 89 95 93 86 48 246 240 235 226 224 236 246 251 259 267 272 271 267 265 265 266 266 266 266 269 270 271 272 271 271 271 271 271 272 272 274 276 276 277 276 275 276 277 277 277 276 275 275 275 276 277 278 280 283 285 287 290 293 293 292 288 286 284 283 283 283 285 287 287 286 288 292
113 111 108 106 102 97 91 85 80 81 84 83 82 83 82 82 85 96 151 196 197 163 148 201 242 260 272 280 285 282 274 270 269 270 271 270 269 270 271 272 272 272 272 272 272 271 271 271 272 273 274 276 277 278 278 278 279 279 280 280 279 279 279 279 280 282 284 285 288 291 292 293 292 292 290 288 287 286 286 286 286 285 285 286 288
126 120 113 110 106 106 107 106 108 111 111 111 109 105 100 98 101 108 88 43 47 62 72 62 6 338 316 307 299 285 276 275 272 271 273 275 276 278 279 277 276 275 274 273 272 271 270 270 271 273 274 275 276 277 278 278 278 278 278 279 280 281 282 283 284 284 285 286 287 289 289 289 290 291 292 291 291 290 289 288 287 285 282 281 281
148 147 143 139 126 117 115 118 129 138 141 144 150 149 144 143 156 183 233 347 357 12 22 17 5 349 334 331 319 304 299 300 298 299 300 297 292 287 284 281 279 278 278 277 276 275 274 274 274 274 275 275 275 276 276 277 277 277 277 277 277 278 279 281 283 284 284 285 286 286 286 287 287 288 289 289 289 289 289 287 286 284 281 280 279
173 177 181 184 177 165 149 138 142 152 157 165 175 175 168 167 171 173 169 153 23 23 25 15 350 315 300 296 289 288 294 298 304 315 320 313 304 296 289 285 282 280 279 278 278 278 279 280 279 280 281 281 280 279 279 280 280 279 278 278 277 278 279 280 281 282 282 283 283 283 283 284 285 285 286 286 286 286 285 284 284 283 282 282 280
206 217 218 217 203 194 188 180 173 175 177 182 190 193 193 195 199 203 207 216 247 21 39 9 314 284 284 289 286 284 289 291 295 302 301 295 292 287 285 286 286 285 283 280 279 279 279 280 280 283 285 286 285 285 285 285 285 284 283 283 282 282 283 283 284 285 285 285 285 285 285 285 285 285 285 284 284 284 285 285 285 285 284 283 282
208 223 229 234 233 224 216 215 211 208 207 209 215 226 239 251 262 271 282 288 294 302 307 307 306 297 297 309 320 322 319 309 301 298 292 290 288 286 289 294 298 301 302 300 299 299 298 297 295 293 292 291 290 289 287 285 285 284 285 286 287 288 288 288 288 287 287 288 288 288 289 289 289 287 286 287 287 287 288 288 288 289 289 288 288
196 203 211 218 226 229 234 239 240 238 234 232 234 243 258 274 286 297 305 307 308 307 304 303 303 299 295 299 312 330 341 335 315 297 288 288 290 293 297 300 302 307 311 313 316 316 314 314 312 309 306 302 298 295 292 289 287 284 282 284 287 290 294 296 296 295 294 294 293 293 293 292 292 291 292 293 293 293 292 292 291 292 292 292 292
200 196 196 200 205 209 217 228 239 248 252 251 249 251 259 272 286 300 308 312 314 312 307 302 297 294 293 292 295 306 321 328 318 301 290 287 287 289 292 294 296 299 300 303 308 310 310 312 313 314 313 309 305 301 298 297 296 292 289 288 287 284 283 286 290 294 296 295 294 294 295 295 295 295 296 296 295 294 293 293 292 292 292 292 292
211 203 196 196 198 202 210 220 226 235 244 247 249 252 257 264 273 284 292 300 308 310 311 309 302 297 300 303 305 306 306 306 304 299 296 294 293 295 296 298 300 303 305 306 308 310 311 313 314 315 313 311 308 306 303 302 303 303 303 302 299 293 284 277 275 276 278 281 283 287 292 295 296 297 297 296 294 293 293 292 292 292 293 292 290
202 197 198 201 204 208 217 226 232 236 240 244 248 251 253 254 256 263 271 277 283 292 302 307 309 312 315 320 326 325 318 312 307 304 304 305 307 309 310 311 312 314 316 317 317 318 319 320 320 320 319 318 317 316 315 313 312 311 311 311 310 307 303 297 292 285 281 281 285 289 290 292 294 296 296 296 295 294 293 291 289 289 290 291 289
346 214 210 219 224 228 230 233 237 238 237 241 246 251 256 254 244 243 253 263 271 280 287 290 294 303 313 321 326 329 327 322 318 315 315 315 315 317 318 319 320 322 323 324 325 327 328 328 328 327 326 326 325 324 322 320 318 317 316 315 314 313 311 310 307 302 295 290 287 286 287 288 291 292 291 290 290 291 293 292 291 291 292 290 289
348 341 333 320 300 287 275 261 255 248 241 235 228 220 222 233 236 237 242 253 266 274 277 280 283 290 301 311 315 315 316 318 320 323 324 323 322 322 321 322 324 324 325 328 329 330 330 331 331 332 331 331 329 327 326 324 321 319 318 317 317 315 313 311 310 309 307 302 296 293 290 288 286 285 284 284 287 289 293 296 295 296 295 292 290
350 344 339 333 327 314 297 285 277 270 266 264 242 213 203 209 225 236 240 246 256 264 268 273 278 285 293 297 297 298 300 306 311 317 321 323 325 326 327 329 328 326 325 327 327 327 327 328 328 329 329 330 329 329 329 328 326 324 321 318 317 315 314 313 311 310 310 308 306 305 302 298 292 288 285 284 285 285 288 291 291 291 292 293 293
351 345 342 336 330 320 305 295 288 279 278 283 285 263 218 208 219 230 236 244 254 260 264 268 273 279 284 283 281 285 289 294 301 307 313 318 322 324 325 325 324 322 321 323 325 326 327 327 327 326 327 328 328 327 327 328 328 328 326 323 321 318 316 315 314 312 311 309 308 308 307 305 302 299 295 292 289 288 288 288 287 285 286 288 290
349 344 343 335 322 309 294 288 286 283 283 281 283 294 294 261 239 232 231 241 253 259 265 269 270 269 269 270 274 281 285 288 292 297 302 308 311 315 318 320 320 320 320 321 323 325 327 329 330 330 329 329 329 329 328 328 328 328 328 327 325 323 320 317 315 313 312 310 309 307 306 305 305 304 302 300 297 295 294 292 289 286 284 283 283
346 340 333 325 316 304 293 289 287 287 287 285 283 284 282 279 272 253 242 244 249 252 258 265 266 265 264 265 270 275 279 283 287 290 295 299 301 304 308 313 317 320 321 323 324 324 325 326 328 328 329 329 329 329 328 328 327 328 328 327 326 325 323 321 318 315 313 311 309 308 307 306 305 304 303 302 301 300 298 296 295 292 288 285 283
337 328 321 316 310 303 298 294 288 287 287 288 287 282 276 271 267 261 261 261 257 257 260 260 260 263 266 267 268 270 274 278 281 284 289 292 296 299 303 306 309 311 314 317 320 323 325 323 322 323 325 325 326 327 326 325 325 324 325 326 326 325 324 323 320 318 315 312 310 308 307 306 305 304 304 303 302 301 300 299 298 296 294 291 288
320 311 307 303 301 300 297 292 289 288 287 284 281 275 269 265 262 262 265 263 260 262 268 269 266 265 267 267 265 266 269 272 275 280 283 286 289 293 296 296 297 298 302 305 307 310 315 316 315 317 319 320 321 321 321 322 320 318 320 323 323 322 322 322 321 320 318 316 313 311 309 307 306 305 304 304 304 303 303 302 301 299 298 296 295
307 300 297 294 293 293 290 288 288 288 285 283 280 273 265 262 262 261 259 258 258 260 266 271 271 268 267 268 266 263 263 267 273 278 284 288 291 291 289 286 286 288 290 292 295 300 304 306 308 311 313 316 318 319 319 320 319 316 316 318 319 319 319 319 320 320 319 318 317 314 312 311 309 307 306 305 304 304 304 304 303 302 301 299 298
301 297 296 294 291 288 283 282 282 280 279 281 281 275 266 261 258 256 254 255 259 260 262 267 269 267 272 281 279 271 267 267 269 271 274 279 283 282 280 280 280 279 280 284 291 298 302 304 307 310 313 316 317 317 316 317 318 316 315 317 317 317 317 317 318 318 317 317 317 315 314 314 313 312 309 308 307 306 305 303 303 303 302 301 299
298 298 298 295 291 288 284 282 280 278 277 277 276 273 268 258 252 251 249 251 254 254 259 267 273 273 274 280 286 285 282 279 275 271 267 266 267 269 273 275 274 274 278 284 290 297 301 303 306 310 312 313 313 312 312 314 316 316 315 316 317 317 316 315 315 315 314 313 313 313 313 313 313 312 311 310 309 308 305 303 302 302 301 300 299
297 300 301 301 299 297 294 287 282 279 275 271 270 268 263 254 248 243 240 245 250 255 265 272 274 274 272 273 280 286 288 287 286 281 273 266 263 262 264 265 267 271 278 284 290 294 297 299 302 305 307 307 307 308 310 312 313 313 314 315 315 315 314 313 312 311 310 309 309 310 310 309 308 308 308 308 308 307 305 304 303 302 301 300 300
293 297 301 304 306 307 304 295 289 285 277 271 269 262 246 247 251 250 251 257 261 268 274 272 270 271 275 279 284 288 287 285 285 284 278 271 265 259 256 258 266 275 281 284 288 292 296 300 302 302 303 305 307 309 311 311 311 311 312 312 311 310 310 310 309 309 309 307 307 307 306 305 304 304 303 304 305 305 304 303 302 301 301 300 299
282 287 295 302 307 310 310 305 300 297 282 265 259 253 249 248 251 256 262 266 268 272 273 272 273 278 281 285 290 293 292 287 284 284 281 275 269 264 263 265 270 276 281 284 288 291 295 298 300 300 302 306 309 310 311 312 312 311 310 308 307 306 306 306 305 306 306 306 305 304 304 303 302 301 300 301 302 302 301 300 300 300 299 299 298
270 279 289 297 304 310 313 310 300 271 257 267 269 261 253 248 249 259 267 269 272 275 276 275 279 281 280 280 285 290 292 289 286 285 285 281 274 271 272 273 273 276 280 284 287 291 294 296 298 301 305 307 308 309 310 311 311 311 309 307 306 304 303 301 300 300 300 301 302 302 302 301 300 299 298 298 299 299 298 298 299 299 299 298 297
268 278 288 297 304 310 312 309 300 283 264 269 271 262 257 260 264 272 278 279 278 281 283 283 283 282 281 279 280 284 289 290 288 287 289 287 281 276 275 276 280 284 285 287 289 292 295 297 299 301 303 303 303 305 307 308 309 309 308 306 304 301 299 297 295 294 295 297 299 300 301 301 301 300 299 298 297 296 296 296 297 298 298 298 298
278 289 298 306 312 314 314 312 311 308 299 286 278 272 274 281 282 282 285 289 290 289 289 288 288 288 287 286 284 283 286 290 291 290 289 288 285 280 277 280 287 291 292 294 295 295 297 299 299 299 299 299 300 303 305 306 307 307 306 304 301 299 296 294 293 294 296 299 300 300 301 301 301 301 301 301 300 298 297 296 296 297 298 299 299
304 316 323 327 328 328 327 326 325 325 323 315 306 297 288 288 291 292 295 297 298 297 295 295 295 295 293 292 291 289 288 289 292 293 292 290 287 282 279 282 289 293 296 297 297 297 297 297 297 296 296 297 300 302 303 303 302 302 302 301 300 298 296 294 293 295 299 301 302 302 303 303 304 304 306 306 305 302 300 298 297 297 299 300 301
335 342 342 342 341 340 340 338 337 336 336 332 327 322 314 300 299 300 299 298 298 297 295 294 295 296 297 296 295 293 292 292 292 292 294 294 291 286 283 285 290 293 295 296 295 294 294 293 292 292 293 296 298 300 301 301 299 298 298 298 297 296 297 296 296 300 303 304 304 305 306 307 309 310 310 310 308 305 302 299 298 299 301 302 302
350 356 355 354 355 354 351 348 344 341 339 337 334 333 331 322 315 314 313 310 304 297 293 292 292 294 297 296 295 295 296 295 294 295 295 295 293 290 289 290 291 293 295 295 295 294 293 291 289 289 291 293 295 297 299 299 298 297 297 296 295 297 298 297 299 303 306 307 307 309 309 309 310 311 312 312 310 307 303 301 300 301 303 303 303
1 8 9 6 5 1 355 350 345 341 338 337 338 340 340 335 330 327 326 324 318 310 305 300 296 294 295 295 295 296 295 293 293 296 296 294 292 289 287 287 289 291 293 294 295 295 294 290 287 288 290 291 292 295 297 298 297 295 295 295 295 296 297 298 300 304 307 308 309 309 309 309 310 310 312 313 312 309 306 304 303 302 302 302 302
18 21 19 14 11 7 2 358 354 349 345 344 345 347 346 341 336 331 329 329 326 322 317 312 306 302 301 299 296 296 295 294 295 298 298 297 295 291 287 288 292 294 293 293 294 294 292 289 288 288 290 290 291 293 295 295 295 296 297 298 298 298 299 300 301 304 305 306 307 307 309 310 311 313 314 316 315 313 311 308 306 303 301 300 300